Vertical_Velocity
2 1 1 1 1 0 -0 -1 -0 0 1 1 1 2 1 -0 -2 -3 -3 -2 -2 -2 -1 0 1 1 1 1 2 1 0 -1 -1 -1 -0 0 0 1 0 -0 -0 -1 -1 -0 1 2 2 2 1 1 2 2 2 2 2 2 1 1 0 -0 -1 -1 -1 -1 -1 -0 -0 0 1
3 2 2 2 1 1 -0 -1 -1 -0 1 1 2 2 1 -1 -3 -3 -3 -2 -2 -2 -1 -0 0 1 1 1 2 1 0 -1 -1 -0 0 1 1 1 1 1 0 -0 -0 0 1 2 2 1 1 2 2 3 2 1 0 -1 -1 -1 -1 -2 -2 -1 -1 -0 0 1 2 3 3
4 3 2 1 1 0 -0 -1 -1 0 1 2 2 2 1 -2 -3 -3 -2 -2 -2 -2 -1 -1 -0 0 1 1 1 1 1 -0 -0 0 0 1 1 1 1 1 1 1 1 1 1 2 2 1 2 2 2 2 1 -1 -2 -2 -0 0 1 1 0 0 0 -0 0 1 2 2 2
4 3 2 1 1 1 0 0 0 1 1 2 3 1 -1 -3 -3 -2 -2 -3 -2 -2 -2 -1 -1 0 1 1 1 1 1 1 1 0 0 1 1 1 1 2 2 1 1 1 2 2 2 2 2 2 2 2 1 1 1 1 3 4 4 4 3 3 2 1 1 1 1 0 1
3 3 1 1 1 1 1 1 1 1 2 2 2 0 -2 -3 -2 -1 -2 -3 -3 -2 -1 -1 -0 -0 0 0 1 1 1 1 1 1 0 -0 0 1 1 2 1 1 1 2 2 2 3 3 3 3 3 3 3 3 3 4 5 5 4 3 3 3 2 1 1 0 -0 -1 -1
3 2 1 1 1 1 2 1 1 1 1 2 1 -1 -2 -2 -1 -1 -2 -3 -2 -1 -1 -0 0 -0 -0 -0 1 1 1 1 1 1 0 0 0 1 1 2 1 1 1 2 3 3 3 4 5 4 4 3 1 1 2 3 3 2 1 -0 -0 0 0 -0 -1 -1 -1 -2 -2
2 2 1 0 1 2 3 3 2 2 1 0 -0 -1 -1 -1 -1 -1 -2 -3 -2 -1 -1 0 0 -1 -1 -0 1 2 2 1 1 1 1 1 1 1 1 1 1 1 2 3 3 3 4 6 7 6 4 2 1 1 2 2 1 -0 -1 -2 -2 -1 -1 -1 -1 -1 -2 -2 -2
1 1 0 0 2 3 4 4 3 1 0 -1 -0 -0 -1 -1 -1 -2 -3 -2 -1 -1 0 1 0 -1 -1 0 1 2 2 1 1 1 1 1 1 1 1 1 1 2 3 4 4 3 4 6 7 5 3 2 2 1 1 1 0 -1 -2 -2 -3 -2 -2 -1 -2 -2 -2 -2 -2
0 -0 -0 1 3 4 4 4 2 1 -0 -1 -0 -0 -1 -2 -3 -3 -3 -1 -0 1 1 1 -1 -1 -1 0 1 2 2 1 1 1 1 1 1 1 1 2 2 3 4 4 4 3 3 4 5 4 3 3 2 1 1 1 0 -0 -1 -2 -2 -2 -2 -2 -2 -2 -2 -2 -1
-0 -0 1 2 3 4 4 3 1 -0 -1 -1 -1 -1 -2 -4 -4 -3 -1 1 1 1 0 -1 -1 -1 -0 1 1 1 2 2 1 1 0 0 1 2 3 4 4 4 4 4 3 2 1 1 2 2 2 2 2 1 1 1 0 -0 -1 -1 -2 -2 -2 -2 -2 -1 -1 -0 -0
0 1 2 3 4 4 3 1 -0 -1 -1 -1 -2 -3 -4 -5 -3 -1 1 2 1 -1 -2 -2 -1 -0 0 1 1 1 2 2 1 1 1 1 3 4 5 5 4 4 3 3 2 1 0 -1 -1 -0 0 1 1 1 0 0 -0 -0 -1 -1 -1 -1 -0 -0 0 1 1 1 1
1 2 3 4 4 3 1 0 -1 -1 -1 -1 -3 -4 -4 -3 -1 1 2 1 -1 -2 -2 -1 0 1 1 1 1 1 1 1 1 2 2 4 5 6 5 4 4 3 3 2 2 1 -0 -1 -1 -1 -1 -1 -0 -0 -0 -0 -0 -0 -0 -1 -0 -0 1 1 2 2 2 1 1
2 2 3 4 3 2 0 -1 -1 -1 -1 -2 -4 -4 -3 -0 1 1 1 -1 -1 -2 -1 0 1 1 1 1 1 1 1 1 2 3 5 6 6 5 4 3 2 2 2 2 1 0 -0 -1 -1 -1 -1 -1 -1 -1 -0 -0 -0 0 0 0 1 1 1 1 2 1 1 0 -0
1 2 3 3 2 1 -0 -0 -1 -1 -2 -4 -4 -2 -0 1 1 -0 -1 -2 -1 -0 1 1 2 1 1 1 1 1 1 1 2 4 4 5 4 3 2 2 2 2 2 1 0 -0 -1 -1 -1 -1 -1 -1 -1 -0 -0 -0 0 1 1 1 1 1 1 0 -0 -1 -0 -0 0
1 2 3 4 2 1 -0 -1 -1 -2 -3 -4 -3 -1 0 0 -1 -1 -1 -0 1 1 2 1 1 1 1 2 3 3 3 2 2 2 2 2 2 2 2 2 2 2 1 1 -0 -1 -1 -1 -1 -0 -0 -0 -0 -0 0 0 0 1 1 1 1 0 -1 -1 -1 -0 0 1 1
2 3 4 4 1 -0 -1 -1 -2 -3 -3 -2 -1 -1 -1 -1 -1 -0 1 1 2 2 2 1 1 1 1 2 3 4 3 2 2 1 1 1 2 2 2 2 2 1 1 -0 -1 -1 -1 -0 -0 0 0 0 0 0 0 0 0 1 0 0 -0 -0 -1 -1 -0 0 1 1 1
3 4 4 2 0 -1 -2 -2 -2 -2 -1 -1 -1 -1 -1 -1 -0 1 2 2 2 2 2 2 2 2 1 1 2 2 1 1 1 0 0 1 1 2 2 2 1 1 -0 -1 -1 -1 -0 0 1 1 1 0 0 0 0 0 0 -0 -0 -1 -1 -1 -1 -0 0 1 1 1 1
4 4 3 0 -1 -2 -2 -2 -1 -1 -1 -1 -2 -1 -1 1 1 2 2 2 2 1 2 3 3 3 2 1 0 0 -0 -1 -1 -1 -0 1 1 1 1 1 0 -0 -1 -1 -1 -0 0 1 1 0 0 -0 0 0 1 0 -0 -1 -1 -1 -1 -1 -1 -0 -0 0 0 0 0
4 2 1 -1 -2 -1 -1 -1 -1 -1 -1 -2 -1 -0 1 2 2 2 2 2 1 1 2 3 3 3 2 1 0 -0 -1 -1 -1 -0 0 1 1 1 0 -0 -0 -1 -1 -0 -0 0 0 -0 0 0 -0 -0 0 0 0 -0 -1 -1 -2 -1 -1 -1 -1 -1 -0 -0 -0 0 0
2 1 -1 -2 -1 -0 -0 -1 -2 -1 -1 -0 1 1 2 3 3 2 2 1 1 1 2 2 2 2 1 0 -0 -0 0 0 0 1 1 1 0 -0 -1 -1 0 0 1 0 0 0 1 1 0 0 -0 -0 -0 -0 -0 -0 -1 -1 -2 -1 -1 -1 -1 -1 -1 -1 -1 -1 -1
0 -1 -2 -2 -1 -1 -1 -1 -1 0 1 2 3 3 3 2 2 1 1 0 1 1 2 2 1 1 0 -0 0 0 1 1 1 0 0 -0 -0 -0 0 1 1 1 1 0 1 1 1 1 0 -0 -0 -1 -1 -0 -0 -1 -1 -1 -1 -1 -1 -0 -0 -1 -1 -1 -1 -1 -1
-3 -4 -3 -2 -1 1 1 2 2 3 3 3 3 2 2 1 0 0 0 1 1 1 1 1 0 -0 0 0 1 1 1 1 0 -0 -0 0 1 1 2 2 1 1 1 1 1 1 1 0 0 -0 -1 -1 -1 -1 -1 -1 -1 -1 -1 -1 -1 -1 -1 -1 -1 -1 -1 -1 -1
-4 -3 -1 1 3 4 4 4 3 3 3 2 1 1 -0 -1 -1 -1 0 1 1 1 0 -0 -0 -0 0 1 1 1 0 -0 0 0 1 2 2 2 1 1 0 0 1 1 1 0 0 -0 -0 -0 -1 -1 -1 -1 -1 -1 -1 -1 -1 -1 -1 -1 -1 -1 -1 -1 -1 -1 -2
0 2 4 5 5 5 4 3 2 1 0 -0 -0 -1 -1 -2 -1 -0 1 1 1 0 -0 -1 -0 0 0 1 1 0 0 0 1 2 2 3 2 1 1 -0 0 0 1 0 -0 -1 -1 -1 -1 -1 -1 -1 -0 -0 -0 -0 -1 -1 -1 -1 -2 -2 -2 -1 -1 -1 -1 -1 -1
4 5 5 5 4 3 2 1 -0 -1 -1 -2 -1 -1 -1 -2 -1 0 1 1 1 -0 -1 -1 0 0 1 1 1 1 1 2 2 2 2 2 1 0 -0 0 1 1 0 -0 -1 -1 -1 -1 -1 -1 -1 -1 -0 -1 -1 -1 -1 -1 -1 -1 -2 -2 -2 -2 -1 -1 -0 0 -0
4 4 4 3 2 1 -0 -1 -2 -2 -2 -2 -1 -1 -1 -1 0 1 1 1 -0 -0 -0 0 0 0 1 1 2 2 3 3 2 2 1 1 0 0 0 1 1 -0 -1 -1 -1 -1 -1 -1 -0 -0 -0 -1 -1 -1 -1 -1 -1 -1 -1 -1 -1 -1 -2 -2 -2 -1 -0 1 1
2 2 1 -1 -1 -1 -2 -2 -2 -2 -2 -2 -1 -1 -0 0 1 1 1 0 -0 -0 0 0 0 1 1 2 3 3 3 2 2 1 1 0 -0 0 0 0 -0 -1 -1 -1 -1 -1 -1 -0 -0 -0 -1 -1 -1 -1 -1 -2 -1 -1 -1 -1 -1 -1 -1 -1 -2 -2 -1 -1 0
0 -1 -2 -2 -2 -2 -2 -2 -2 -2 -2 -2 -1 -0 0 1 1 1 0 -0 0 0 0 0 1 1 2 3 3 3 2 2 1 1 -0 -0 -0 -0 -0 -0 -1 -1 -1 -0 -0 -0 -0 -0 -0 -0 -1 -1 -1 -1 -1 -1 -1 -1 -1 -1 -1 -1 -1 -1 -2 -2 -2 -2 -2
-1 -1 -2 -2 -2 -2 -2 -2 -2 -2 -2 -1 -0 0 1 1 1 0 0 0 -0 -0 0 1 1 2 3 3 3 2 2 1 0 -0 -1 -1 -0 0 -0 -1 -1 -1 -0 0 -0 -0 -0 -0 -0 -1 -1 -1 -1 -1 -2 -2 -1 -1 -1 -1 -1 -1 -1 -1 -2 -2 -2 -3 -2
-1 -1 -2 -2 -2 -2 -2 -2 -2 -2 -1 -0 0 1 1 0 -0 -0 -0 -0 -0 0 1 1 2 3 3 3 3 2 1 0 -1 -1 -1 -1 -0 -0 -1 -1 -1 -0 -0 -0 -0 -0 -0 -0 -1 -1 -1 -1 -1 -1 -1 -1 -1 -1 -1 -1 -1 -1 -1 -2 -2 -2 -2 -2 -2
-1 -1 -1 -2 -2 -2 -2 -2 -2 -1 0 1 1 1 1 -0 -0 -0 -0 0 1 1 1 2 2 2 2 2 2 1 1 -0 -1 -1 -1 -0 -0 -1 -1 -1 -0 -0 -0 -0 -0 -0 -0 -1 -1 -1 -1 -1 -1 -1 -1 -1 -1 -1 -1 -1 -1 -1 -1 -2 -2 -2 -2 -1 -1
-1 -1 -1 -2 -2 -2 -2 -1 -1 0 1 1 1 1 -0 -0 -0 0 1 1 1 2 2 2 2 2 2 1 1 1 0 -0 -0 -1 -1 -1 -1 -1 -1 -1 -0 -0 -0 -0 -0 -0 -0 -1 -1 -1 -1 -1 -1 -1 -1 -1 -1 -0 -0 -0 -1 -1 -1 -1 -1 -1 -1 -1 -1
-1 -1 -1 -2 -2 -2 -1 -1 0 1 1 1 1 0 0 0 1 1 1 1 1 1 1 2 1 1 1 1 1 0 0 0 -0 -1 -1 -1 -1 -1 -1 -1 -0 -0 -0 -0 -0 -0 -0 -0 -1 -1 -1 -1 -1 -1 -1 -1 -1 -0 -0 -0 -1 -1 -1 -1 -1 -1 -1 -1 -1
-1 -1 -1 -1 -1 -1 -0 1 1 1 1 0 0 0 1 1 1 1 1 1 1 1 1 1 1 1 1 0 0 0 0 -0 -0 -1 -1 -1 -1 -1 -1 -1 -0 -0 -0 -0 -0 -0 -0 -0 -1 -1 -1 -1 -1 -1 -1 -1 -1 -1 -1 -0 -1 -1 -1 -2 -1 -1 -1 -1 -1
-1 -1 -1 -1 -0 0 1 1 1 1 0 0 0 1 1 1 1 1 1 1 1 1 1 1 1 0 0 0 0 -0 -0 -1 -1 -1 -1 -1 -1 -1 -1 -0 -0 -0 0 0 -0 -0 -0 -0 -1 -1 -1 -1 -1 -2 -2 -1 -1 -1 -1 -1 -1 -2 -2 -2 -2 -1 -1 -1 -1
-0 -0 -0 -0 0 1 1 1 0 0 0 1 1 1 1 0 0 0 0 1 1 1 1 1 1 0 0 -0 -0 -1 -1 -1 -1 -1 -1 -1 -1 -1 -0 -0 -0 0 0 0 0 -0 -0 -1 -1 -1 -1 -1 -2 -2 -2 -1 -1 -0 0 -0 -1 -2 -3 -3 -2 -2 -1 -1 -1
0 1 1 1 1 1 1 1 1 1 1 1 1 1 0 0 -0 0 0 1 1 1 1 1 0 -0 -0 -1 -1 -1 -1 -1 -1 -1 -1 -1 -1 -0 -0 -0 0 0 0 0 -0 -0 -1 -1 -1 -1 -1 -2 -2 -2 -1 -1 -0 0 1 1 -0 -1 -2 -2 -2 -1 -1 -1 -1
1 1 2 2 1 1 1 1 1 1 1 1 0 0 0 0 0 0 1 1 1 1 1 0 -0 -1 -1 -1 -1 -1 -1 -1 -1 -1 -1 -1 -0 -0 0 0 0 0 0 0 -0 -1 -1 -1 -1 -1 -1 -1 -1 -1 -2 -1 -1 -0 0 1 1 0 -1 -2 -1 -0 0 0 -0
1 1 2 2 2 2 1 1 1 1 1 1 0 0 0 0 0 1 1 1 1 0 -0 -0 -1 -1 -1 -1 -1 -1 -1 -1 -1 -1 -1 -1 -0 0 1 1 0 0 0 -0 -1 -1 -1 -1 -1 -1 -1 -1 -1 -1 -2 -2 -2 -1 -1 1 1 1 0 -1 -1 -0 0 0 0
1 1 1 2 2 2 2 1 1 1 1 1 1 1 1 0 0 0 0 0 -0 -0 -1 -1 -1 -1 -1 -1 -1 -1 -1 -1 -1 -1 -1 -0 0 0 1 1 0 0 -0 -0 -1 -1 -1 -1 -1 -1 -1 -1 -1 -1 -2 -2 -2 -2 -2 -1 1 1 0 -1 -1 -0 0 -0 -1
1 1 1 2 2 2 2 2 1 1 1 1 1 1 1 0 0 0 -0 -0 -1 -1 -1 -2 -2 -1 -1 -1 -1 -1 -1 -1 -1 -1 -0 -0 0 1 1 1 0 0 -0 -0 -1 -1 -1 -1 -1 -1 -1 -2 -2 -2 -1 -2 -2 -2 -2 -2 -1 -0 -0 -1 -1 -1 -1 -1 -1
Height
3081 3082 3083 3083 3084 3085 3085 3086 3087 3088 3089 3090 3091 3091 3092 3092 3092 3093 3093 3093 3094 3095 3096 3098 3098 3099 3100 3101 3101 3102 3102 3103 3103 3103 3104 3104 3104 3104 3104 3104 3104 3105 3105 3105 3106 3106 3106 3107 3107 3107 3107 3108 3108 3108 3107 3107 3106 3106 3105 3105 3105 3104 3104 3104 3103 3103 3103 3103 3102
3080 3081 3081 3082 3083 3083 3084 3085 3086 3087 3088 3089 3090 3090 3090 3090 3091 3091 3091 3092 3093 3094 3095 3096 3097 3098 3099 3099 3100 3100 3101 3101 3102 3102 3102 3103 3103 3103 3103 3103 3103 3103 3104 3104 3104 3105 3105 3105 3106 3106 3106 3107 3107 3106 3106 3105 3105 3104 3104 3104 3103 3103 3103 3103 3103 3102 3102 3102 3101
3078 3079 3080 3081 3082 3083 3083 3084 3085 3086 3087 3088 3088 3089 3089 3089 3089 3089 3090 3091 3091 3092 3093 3094 3096 3097 3098 3098 3098 3099 3099 3100 3100 3101 3101 3101 3101 3102 3102 3102 3102 3103 3103 3103 3103 3104 3104 3104 3105 3105 3105 3105 3105 3104 3104 3104 3104 3104 3103 3103 3103 3103 3102 3101 3100 3100 3100 3099 3099
3077 3078 3079 3079 3080 3081 3082 3083 3084 3085 3086 3087 3087 3088 3088 3087 3088 3088 3088 3089 3090 3091 3092 3093 3094 3095 3096 3097 3097 3098 3098 3098 3099 3099 3099 3100 3100 3100 3100 3101 3101 3101 3102 3102 3102 3103 3103 3103 3104 3104 3104 3104 3104 3104 3104 3103 3103 3103 3102 3102 3101 3101 3100 3100 3099 3098 3098 3097 3097
3076 3077 3078 3078 3079 3080 3081 3082 3083 3083 3084 3085 3086 3086 3086 3086 3086 3087 3087 3088 3088 3089 3090 3092 3093 3094 3095 3095 3096 3096 3097 3097 3097 3098 3098 3098 3098 3099 3099 3099 3100 3100 3100 3101 3101 3102 3102 3102 3103 3103 3103 3103 3103 3103 3102 3102 3102 3101 3101 3100 3099 3099 3098 3098 3097 3097 3096 3095 3095
3074 3075 3076 3077 3078 3079 3080 3081 3082 3083 3083 3084 3084 3084 3084 3084 3085 3085 3086 3086 3087 3088 3089 3090 3092 3093 3093 3094 3094 3095 3095 3095 3096 3096 3097 3097 3097 3098 3098 3098 3098 3099 3099 3100 3100 3100 3101 3102 3102 3102 3102 3102 3101 3101 3100 3100 3100 3099 3098 3098 3097 3097 3096 3096 3095 3095 3094 3093 3093
3073 3074 3075 3076 3077 3078 3079 3080 3081 3081 3082 3082 3082 3082 3083 3083 3083 3084 3084 3085 3086 3087 3088 3089 3090 3091 3092 3093 3093 3093 3094 3094 3094 3095 3095 3095 3096 3096 3097 3097 3097 3098 3098 3098 3099 3099 3100 3101 3101 3101 3101 3100 3099 3099 3098 3098 3098 3097 3096 3095 3095 3095 3094 3094 3094 3093 3093 3092 3092
3071 3072 3073 3074 3076 3077 3078 3079 3079 3080 3080 3080 3081 3081 3081 3082 3082 3083 3083 3084 3085 3086 3087 3088 3089 3090 3091 3091 3092 3092 3092 3093 3093 3093 3094 3094 3095 3095 3095 3096 3096 3097 3097 3098 3098 3098 3099 3099 3100 3099 3099 3098 3098 3097 3097 3096 3095 3095 3094 3094 3093 3093 3093 3093 3092 3092 3091 3091 3090
3070 3071 3072 3073 3074 3076 3077 3077 3078 3078 3078 3079 3079 3080 3080 3081 3081 3081 3082 3083 3083 3085 3086 3087 3088 3088 3089 3090 3090 3091 3091 3091 3092 3092 3093 3093 3093 3094 3094 3095 3095 3096 3096 3096 3097 3097 3097 3098 3098 3098 3097 3097 3096 3095 3095 3094 3094 3093 3093 3093 3092 3092 3092 3091 3091 3090 3090 3089 3089
3068 3069 3071 3072 3073 3074 3075 3076 3076 3077 3077 3077 3078 3079 3079 3079 3080 3080 3081 3082 3083 3084 3085 3086 3087 3088 3088 3088 3089 3089 3090 3090 3090 3091 3091 3092 3092 3093 3093 3094 3094 3095 3095 3095 3095 3095 3095 3095 3095 3095 3095 3094 3094 3093 3093 3093 3092 3092 3092 3091 3091 3091 3090 3090 3090 3089 3089 3088 3088
3067 3068 3069 3071 3072 3073 3074 3074 3075 3075 3076 3076 3077 3078 3078 3078 3079 3079 3080 3081 3082 3083 3084 3085 3086 3086 3087 3088 3088 3088 3088 3089 3089 3090 3090 3091 3092 3092 3093 3093 3093 3093 3094 3094 3093 3093 3093 3093 3093 3093 3092 3092 3092 3092 3092 3091 3091 3091 3091 3090 3090 3090 3089 3089 3089 3088 3088 3087 3087
3066 3067 3068 3069 3071 3072 3072 3073 3073 3074 3074 3075 3076 3076 3077 3077 3078 3079 3079 3080 3081 3082 3083 3084 3084 3085 3086 3086 3087 3087 3087 3088 3088 3089 3089 3090 3091 3091 3092 3092 3092 3092 3092 3092 3092 3092 3091 3091 3090 3090 3090 3090 3090 3090 3090 3090 3090 3090 3090 3089 3089 3089 3088 3088 3088 3088 3087 3086 3085
3064 3066 3067 3068 3069 3070 3071 3071 3072 3073 3073 3074 3074 3075 3076 3077 3077 3078 3078 3079 3080 3081 3082 3083 3083 3084 3084 3085 3085 3086 3086 3087 3087 3088 3089 3089 3090 3090 3090 3090 3090 3090 3090 3090 3090 3089 3089 3089 3089 3089 3089 3089 3089 3089 3089 3089 3089 3089 3089 3088 3088 3088 3088 3087 3087 3086 3085 3084 3084
3063 3065 3066 3067 3068 3069 3069 3070 3071 3071 3072 3073 3073 3074 3075 3076 3076 3077 3078 3078 3079 3080 3081 3082 3082 3083 3083 3083 3084 3084 3085 3086 3086 3087 3088 3088 3088 3088 3088 3088 3089 3089 3088 3088 3088 3088 3088 3088 3088 3088 3088 3088 3088 3088 3088 3088 3088 3088 3088 3088 3087 3087 3086 3086 3085 3084 3084 3083 3083
3062 3063 3065 3066 3067 3068 3068 3069 3069 3070 3071 3072 3073 3073 3074 3075 3076 3076 3077 3078 3079 3080 3080 3081 3081 3081 3082 3082 3083 3084 3084 3085 3085 3086 3086 3087 3087 3087 3087 3087 3087 3087 3087 3086 3086 3086 3086 3087 3087 3087 3087 3087 3087 3087 3087 3087 3087 3087 3087 3086 3086 3085 3085 3084 3084 3083 3083 3082 3081
3061 3063 3064 3065 3065 3066 3067 3067 3068 3069 3070 3071 3072 3073 3073 3074 3075 3076 3077 3078 3078 3079 3079 3079 3080 3080 3081 3081 3082 3083 3083 3084 3084 3084 3085 3085 3085 3085 3085 3085 3085 3085 3085 3085 3085 3085 3086 3086 3086 3086 3087 3087 3087 3087 3086 3086 3086 3086 3086 3085 3085 3084 3083 3083 3083 3082 3081 3080 3079
3060 3062 3063 3063 3064 3064 3065 3066 3067 3068 3069 3070 3071 3072 3073 3073 3074 3075 3076 3077 3078 3078 3078 3078 3079 3079 3079 3080 3081 3081 3082 3082 3083 3083 3083 3083 3083 3084 3084 3084 3083 3084 3084 3084 3084 3085 3085 3085 3086 3086 3086 3086 3086 3086 3086 3085 3085 3085 3084 3084 3083 3083 3083 3082 3081 3080 3080 3079 3078
3059 3060 3061 3061 3062 3063 3064 3065 3066 3067 3068 3069 3070 3071 3072 3073 3074 3075 3075 3076 3076 3077 3077 3077 3078 3078 3078 3079 3080 3080 3081 3081 3081 3081 3082 3082 3082 3082 3082 3082 3083 3083 3083 3083 3084 3084 3084 3085 3085 3085 3085 3085 3085 3085 3085 3084 3084 3083 3083 3083 3082 3082 3081 3080 3080 3079 3078 3077 3076
3058 3058 3059 3060 3061 3062 3063 3064 3065 3066 3067 3068 3069 3070 3071 3072 3073 3074 3074 3075 3075 3075 3076 3076 3077 3077 3078 3078 3078 3079 3079 3080 3080 3080 3080 3080 3081 3081 3081 3081 3082 3082 3083 3083 3083 3084 3084 3084 3084 3084 3084 3084 3084 3084 3084 3083 3083 3082 3082 3081 3081 3080 3080 3079 3078 3077 3077 3076 3075
3056 3057 3058 3058 3060 3061 3062 3063 3064 3066 3067 3068 3069 3070 3071 3071 3072 3073 3073 3073 3074 3074 3075 3075 3076 3076 3076 3077 3078 3078 3078 3078 3079 3079 3079 3079 3080 3080 3080 3081 3081 3082 3082 3083 3083 3083 3083 3083 3083 3083 3083 3083 3083 3083 3083 3082 3082 3081 3081 3080 3079 3079 3078 3077 3077 3076 3075 3074 3073
3055 3056 3057 3058 3059 3060 3061 3063 3064 3065 3066 3067 3068 3069 3070 3070 3071 3072 3072 3072 3073 3073 3074 3074 3074 3075 3075 3076 3076 3077 3077 3078 3078 3078 3078 3079 3079 3079 3080 3081 3081 3082 3082 3082 3083 3083 3083 3083 3083 3083 3082 3082 3082 3082 3081 3081 3080 3080 3079 3079 3078 3078 3077 3076 3075 3074 3073 3072 3071
3053 3054 3055 3057 3058 3060 3061 3062 3063 3064 3066 3067 3067 3068 3068 3069 3070 3070 3071 3071 3072 3072 3073 3073 3073 3074 3074 3075 3075 3076 3076 3077 3077 3077 3078 3078 3079 3079 3080 3080 3081 3081 3082 3082 3082 3082 3082 3082 3082 3082 3081 3081 3081 3080 3080 3079 3079 3078 3078 3077 3077 3076 3075 3074 3073 3072 3071 3070 3069
3052 3053 3055 3057 3058 3059 3061 3062 3063 3063 3064 3065 3066 3067 3067 3068 3068 3069 3070 3070 3071 3071 3072 3072 3072 3073 3073 3074 3074 3075 3075 3076 3076 3077 3078 3078 3079 3079 3079 3080 3080 3081 3081 3081 3081 3081 3081 3081 3081 3081 3080 3080 3079 3079 3079 3078 3078 3077 3076 3076 3075 3074 3073 3073 3072 3071 3070 3069 3068
3052 3054 3055 3057 3058 3059 3060 3061 3062 3063 3063 3064 3065 3065 3066 3067 3068 3068 3069 3069 3070 3070 3070 3071 3072 3072 3073 3073 3074 3074 3075 3075 3076 3077 3078 3078 3078 3079 3079 3079 3080 3080 3081 3081 3080 3080 3080 3080 3080 3079 3079 3079 3078 3078 3077 3077 3076 3076 3075 3074 3073 3073 3072 3071 3070 3069 3068 3068 3066
3053 3054 3055 3056 3057 3058 3059 3060 3060 3061 3062 3063 3064 3064 3065 3066 3067 3067 3068 3068 3069 3069 3070 3070 3071 3071 3072 3073 3073 3074 3075 3076 3076 3077 3077 3078 3078 3078 3079 3079 3080 3080 3080 3080 3079 3079 3079 3079 3078 3078 3078 3077 3077 3077 3076 3075 3075 3074 3073 3073 3072 3071 3070 3070 3069 3068 3067 3066 3065
3052 3053 3054 3055 3056 3057 3058 3058 3059 3060 3061 3062 3063 3063 3064 3065 3066 3066 3067 3067 3068 3068 3069 3070 3070 3071 3072 3073 3073 3074 3075 3076 3076 3077 3077 3077 3078 3078 3078 3079 3079 3079 3079 3079 3078 3078 3078 3078 3077 3077 3076 3076 3076 3075 3074 3074 3073 3073 3072 3072 3071 3070 3069 3068 3068 3067 3066 3065 3064
3051 3052 3053 3054 3055 3056 3057 3058 3059 3060 3060 3061 3062 3063 3063 3064 3065 3066 3066 3067 3067 3068 3069 3069 3070 3071 3072 3073 3073 3074 3075 3075 3076 3076 3077 3077 3077 3078 3078 3078 3078 3078 3078 3078 3078 3077 3077 3077 3076 3076 3075 3075 3074 3074 3073 3073 3072 3072 3071 3070 3070 3069 3068 3067 3066 3065 3064 3064 3063
3050 3051 3052 3053 3054 3055 3056 3057 3058 3059 3060 3061 3061 3062 3063 3063 3064 3065 3065 3066 3067 3068 3068 3069 3070 3071 3072 3073 3073 3074 3074 3075 3075 3076 3076 3076 3077 3077 3077 3077 3077 3077 3077 3077 3076 3076 3076 3075 3075 3074 3074 3073 3073 3073 3072 3072 3071 3070 3070 3069 3069 3068 3067 3066 3065 3064 3063 3062 3061
3049 3050 3051 3052 3053 3054 3055 3056 3057 3058 3059 3060 3061 3062 3062 3063 3063 3064 3065 3066 3067 3068 3068 3069 3070 3071 3072 3073 3073 3074 3074 3075 3075 3075 3076 3076 3076 3077 3077 3077 3076 3076 3076 3076 3075 3075 3075 3074 3074 3073 3073 3072 3072 3071 3071 3070 3070 3069 3069 3068 3068 3067 3066 3065 3064 3063 3062 3060 3059
3048 3049 3051 3052 3053 3054 3055 3056 3057 3058 3058 3059 3060 3061 3062 3063 3063 3064 3065 3066 3067 3067 3068 3069 3070 3071 3072 3072 3073 3073 3074 3074 3074 3075 3075 3075 3076 3076 3076 3076 3075 3075 3075 3075 3074 3074 3073 3073 3073 3072 3072 3071 3071 3070 3070 3069 3069 3068 3068 3068 3067 3066 3065 3064 3063 3062 3060 3059 3058
3048 3049 3050 3051 3052 3053 3054 3055 3056 3057 3058 3059 3060 3060 3061 3062 3063 3064 3065 3066 3067 3068 3068 3069 3070 3071 3071 3072 3073 3073 3073 3074 3074 3074 3074 3075 3075 3075 3075 3074 3074 3074 3074 3073 3073 3073 3073 3072 3072 3071 3071 3070 3070 3070 3069 3069 3068 3068 3067 3067 3066 3065 3064 3063 3062 3060 3059 3058 3056
3047 3048 3049 3050 3052 3053 3054 3055 3056 3057 3058 3058 3059 3060 3061 3062 3063 3064 3065 3066 3067 3067 3068 3069 3070 3070 3071 3072 3072 3073 3073 3073 3073 3073 3074 3074 3074 3074 3074 3073 3073 3073 3073 3073 3072 3072 3071 3071 3071 3070 3070 3070 3069 3069 3068 3068 3068 3067 3067 3066 3065 3064 3063 3062 3060 3059 3058 3056 3054
3047 3048 3049 3050 3051 3052 3053 3054 3055 3056 3057 3058 3059 3060 3061 3062 3063 3064 3065 3066 3066 3067 3068 3068 3069 3070 3070 3071 3072 3072 3072 3073 3073 3073 3073 3073 3073 3073 3073 3073 3072 3072 3072 3072 3071 3071 3070 3070 3070 3069 3069 3069 3068 3068 3068 3067 3067 3066 3065 3065 3064 3063 3061 3060 3059 3057 3056 3054 3053
3046 3047 3048 3050 3051 3052 3053 3054 3055 3056 3057 3058 3059 3060 3061 3062 3063 3064 3064 3065 3066 3067 3068 3068 3069 3069 3070 3071 3071 3071 3072 3072 3072 3072 3072 3072 3072 3072 3072 3072 3071 3071 3071 3070 3070 3070 3070 3069 3069 3069 3068 3068 3068 3067 3067 3066 3066 3065 3064 3063 3063 3061 3060 3058 3057 3056 3054 3052 3051
3046 3047 3048 3049 3051 3052 3053 3054 3055 3056 3057 3058 3059 3060 3061 3062 3063 3063 3064 3065 3066 3067 3067 3068 3068 3069 3069 3070 3070 3071 3071 3071 3071 3071 3071 3071 3071 3071 3071 3071 3070 3070 3070 3069 3069 3069 3069 3068 3068 3068 3068 3067 3067 3066 3066 3065 3065 3064 3063 3062 3061 3060 3058 3057 3055 3053 3052 3050 3048
3045 3047 3048 3049 3050 3051 3053 3053 3054 3056 3057 3058 3059 3059 3060 3061 3062 3063 3064 3065 3066 3066 3067 3068 3068 3068 3069 3069 3069 3070 3070 3070 3070 3070 3070 3070 3070 3070 3070 3070 3069 3069 3069 3069 3068 3068 3068 3068 3068 3067 3067 3066 3066 3065 3065 3064 3064 3063 3062 3061 3060 3058 3057 3055 3053 3052 3050 3048 3047
3045 3047 3048 3049 3050 3051 3052 3053 3054 3055 3057 3058 3058 3059 3060 3061 3062 3063 3064 3065 3065 3066 3066 3067 3067 3068 3068 3068 3069 3069 3069 3069 3069 3069 3069 3069 3069 3069 3069 3069 3068 3068 3068 3068 3068 3068 3067 3067 3067 3066 3066 3065 3065 3064 3064 3063 3063 3062 3061 3060 3058 3057 3055 3053 3052 3050 3048 3047 3044
3045 3046 3048 3049 3050 3051 3052 3053 3054 3055 3056 3057 3058 3059 3060 3061 3062 3063 3063 3064 3065 3065 3066 3066 3067 3067 3067 3068 3068 3068 3068 3069 3069 3069 3068 3068 3068 3068 3068 3068 3068 3068 3067 3067 3067 3067 3067 3066 3066 3065 3065 3065 3064 3063 3063 3062 3061 3060 3059 3058 3057 3056 3054 3052 3050 3048 3047 3045 3043
3045 3046 3048 3048 3050 3051 3052 3053 3054 3055 3056 3057 3058 3059 3060 3061 3062 3062 3063 3064 3064 3065 3065 3066 3066 3066 3067 3067 3067 3068 3068 3068 3068 3068 3068 3068 3068 3067 3067 3067 3067 3067 3066 3066 3066 3066 3066 3065 3065 3065 3064 3064 3063 3063 3062 3061 3060 3059 3058 3057 3056 3054 3052 3050 3048 3047 3045 3043 3040
3045 3046 3047 3048 3049 3050 3051 3053 3053 3054 3056 3057 3058 3058 3059 3060 3061 3062 3063 3063 3064 3064 3064 3065 3065 3066 3066 3066 3067 3067 3067 3067 3067 3067 3067 3067 3067 3067 3066 3066 3066 3066 3066 3065 3065 3065 3065 3065 3064 3064 3063 3063 3062 3061 3060 3059 3058 3057 3056 3055 3054 3052 3050 3048 3047 3045 3043 3040 3038
3044 3046 3047 3048 3049 3050 3051 3052 3053 3054 3055 3056 3057 3058 3059 3060 3061 3061 3062 3063 3063 3063 3064 3064 3064 3065 3065 3066 3066 3066 3066 3066 3066 3066 3066 3066 3066 3066 3066 3065 3065 3065 3065 3065 3065 3064 3064 3064 3063 3063 3062 3062 3061 3060 3059 3058 3057 3056 3054 3053 3052 3050 3048 3046 3044 3042 3040 3038 3035